Погода в Аксенове

Россия / Республика Башкортостан     53°54′49″N   54°36′08″E
темп.,
°C
ветер,
м/с
пор.,
м/с
влажн.,
%
обл.,
%
осадки,
мм/ч
давл.,
гПа
погр.,
м
14 августа, вс
вс1423:00+18ссз337323 0.0 101927
02:00+19ссв4963100 0.0 1019366
05:00+14ссв3568100 0.0 102080
08:00+17ссв366483 0.0 1020195
11:00+19св465473 0.0 1020461
14:00+22ссв554266 0.0 10201448
17:00+22ссв55399 0.0 10201529
20:00+18ссв495645 0.0 1020254
15 августа, пн
пн1523:00+14ссв411645 0.0 1021220
02:00+12ссв39670 0.0 1022149
05:00+11ссв411670 0.0 1022192
08:00+14св511600 0.0 1023307
11:00+19всв67450 0.0 1023748
14:00+22всв54390 0.0 10231395
17:00+23св44380 0.0 10221516
20:00+18св22550 0.0 102222
16 августа, вт
вт1623:00+14ссв22650 0.0 102312
02:00+14ссв22670 0.0 102311
05:00+13ссв22670 0.0 102411
08:00+16ссв23610 0.0 1025100
11:00+21св34490 0.0 1025758
14:00+24св44420 0.0 10241713
17:00+24св44400 0.0 10241734
20:00+19св34560 0.0 102449
17 августа, ср
ср1723:00+15св33620 0.0 102526
02:00+14св22662 0.0 102511
05:00+13св22685 0.0 102413
08:00+16св256243 0.0 1025144
11:00+21всв45475 0.0 1024639
14:00+24всв44405 0.0 10231630
17:00+24всв33395 0.0 10211779
20:00+20св356083 0.0 102182
18 августа, чт
чт1823:00+16ссв22695 0.0 102115
02:00+15св11760 0.0 102111
05:00+14с11750 0.0 102110
08:00+17ссз116746 0.0 102173
11:00+22ссв34541 0.0 1021928
14:00+23св56472 0.0 10211672
17:00+23ссв66435 0.0 10211645
20:00+18ссв49490 0.0 1022315